Regional Weather Roundup
Issued by NWS

Home | Current Version | Previous Version | Text Only | Print | Product List | Glossary Off
Versions: 1 2 3 4 5 6 7 8 9 10 11 12 13 14 15 16 17 18 19 20 21 22 23 24 25 26 27 28 29 30 31 32 33 34 35 36 37 38 39 40 41 42 43 44 45 46 47 48 49 50

000
ASUS45 KTFX 152219
RWRMT
MONTANA HOURLY WEATHER ROUNDUP
NATIONAL WEATHER SERVICE GREAT FALLS MT
419 PM MDT TUE APR 15 2014

NOTE: "FAIR" INDICATES FEW OR NO CLOUDS BELOW 12000 FEET WITH NO
SIGNIFICANT WEATHER AND/OR OBSTRUCTIONS TO VISIBILITY.

* THESE STATIONS ARE NOT UNDER NWS QUALITY CONTROL. THEY DO NOT
   REPORT WEATHER SUCH AS PRECIPITATION OR FOG.

MTZ001>007-043-152300-
WEST OF THE DIVIDE
CITY           SKY/WX    TMP DP  RH WIND       PRES   REMARKS
KALISPELL      CLOUDY    46  28  50 SW8       29.82R
MISSOULA       LGT RAIN  39  36  89 NW17G29   29.90R WCI  30
BUTTE          CLOUDY    41  21  45 NW29G39   29.79R
MULLAN PASS    CLOUDY    30  27  89 VRB6      29.86S WCI  24
* ESSEX        N/A       36  33  89 SE2        N/A
* LINCOLN      N/A       41  30  65 W8G23      N/A
* LOOKOUT PASS N/A       40  30  68 SE4G11     N/A
* PLAINS APT   PTSUNNY   48  30  50 CALM      29.90R
* POLSON       N/A       48  31  52 S3G10      N/A
* SEELEY LAKE  N/A       40  35  82 SW8G16     N/A   WCI  35
* THOMP F APT  PTCLDY    51  17  26 SW10G25    N/A
* YAAK HILL    N/A       51  30  45 N4G12      N/A
$$

MTZ008-052>055-152300-
SOUTHWEST MONTANA
CITY           SKY/WX    TMP DP  RH WIND       PRES   REMARKS
BOZEMAN        CLOUDY    41  36  82 NE9       29.77R
DILLON         CLOUDY    48  19  32 NW15G26   29.76S
W YELLOWSTONE  N/A       42  21  43 SW5G13     N/A
* THREE FORKS  CLOUDY    46  34  63 NW7        N/A
* BOULDER HILL N/A       39  21  48 N7G19      N/A   WCI  34
* MONIDA PASS  N/A       40  25  55 NW27G38    N/A   WCI  29
* RAYNOLDS PAS N/A       39  29  67 SW14       N/A   WCI  31
* WHITEHALL    N/A       47  29  50 W9G22      N/A
* WISE RIVER   N/A       40  31  70 W22G32     N/A   WCI  30
$$

MTZ009>010-012-014-046-048-049-054-152300-
EAST SLOPES AND CENTRAL MONTANA
CITY           SKY/WX    TMP DP  RH WIND       PRES   REMARKS
CUT BANK       CLOUDY    48  28  46 W26G33    29.71R
GREAT FALLS    CLOUDY    46  37  71 W13       29.69S
HELENA         CLOUDY    50  25  38 W25G36    29.73F
MALMSTROM AFB  CLOUDY    46  36  68 S14       29.67F
* CONRAD       CLOUDY    48  28  46 W21G29     N/A
* DEARBORN     N/A       48  28  46 S12G17     N/A
* EAST GLACIER N/A       41  24  51 NW9        N/A
* MONARCH      N/A       34  28  79 NW13G22    N/A   WCI  25
* PENDROY      N/A       39  31  73 VRB22G28    N/A   WCI  29
* ROGERS PASS  N/A       39  25  57 SE2G24     N/A
* SAINT MARY   N/A       42  24  49 S8G19      N/A
* SWEET GRASS  N/A       49  19  30 W24G29     N/A
* WHITE SULPH  N/A       41  30  65 NW15G34    N/A
$$

MTZ011-013-016-021-035-040-045-047-050-051-152300-
NORTH CENTRAL MONTANA
CITY           SKY/WX    TMP DP  RH WIND       PRES   REMARKS
HAVRE          CLOUDY    55  18  23 NW20G28   29.59R
LEWISTOWN      CLOUDY    43  34  71 W24G32    29.66R
* FORT BENTON  CLOUDY    54  25  33 NW30      29.65S
* MALTA APT    CLOUDY    61  21  21 W29G36    29.52R
* CHESTER      N/A       54  15  21 N18G26     N/A
* DENTON       N/A       46  34  63 W30G37     N/A
* GEYSER       N/A       34  33  96 W17G23     N/A   WCI  23
* JUDITH GAP   N/A       42  31  65 NW20G30    N/A
* LOMA         N/A       52  27  38 NW28G40    N/A
$$

MTZ017>020-022>027-061-062-152300-
NORTHEAST MONTANA
CITY           SKY/WX    TMP DP  RH WIND       PRES   REMARKS
GLASGOW        CLOUDY    59  18  20 NE5       29.50F
JORDAN         CLOUDY    57  21  25 W8        29.54R
SIDNEY         CLOUDY    55  25  31 E10       29.55F
WOLF POINT     PTSUNNY   59  18  20 VRB3      29.53F
* BEAVER HILL  N/A       58  18  21 W14        N/A
* CIRCLE       N/A       57  24  28 W2G11      N/A
* LINDSAY DVD  N/A       55  15  20 W14G23     N/A
* NAVAJO       N/A       45  17  32 E12G17     N/A
* SACO         N/A       59  19  21 W23G37     N/A
$$

MTZ028>042-056>058-152300-
SOUTHCENTRAL AND SOUTHEAST MONTANA
CITY           SKY/WX    TMP DP  RH WIND       PRES   REMARKS
BAKER          CLOUDY    61  19  20 NW9       29.53F
BILLINGS       LGT RAIN  50  34  54 NW22G31   29.63S
LIVINGSTON     LGT SNOW  36 N/A N/A NW13G24   29.75R VSB 2 1/2 WCI  27
MILES CITY     CLOUDY    61  25  25 NW22      29.54F
* EKALAKA APT  PTCLDY    59  19  21 W18G26    29.58F
* LAUREL APT   CLOUDY    54  27  35 W13G20     N/A
* ROUNDUP APT  CLOUDY    55  21  27 SW18G28    N/A
* HYSHAM       N/A       55  23  29 W14G21     N/A
* LAME DEER    N/A       52  23  32 W17G26     N/A
* REED POINT   N/A       48  32  54 W31G40     N/A
* ROSCOE HILL  N/A       45  15  30 SW14G22    N/A
$$

REGIONAL REPORTS...DAKOTAS
CITY           SKY/WX    TMP DP  RH WIND       PRES   REMARKS
WILLISTON      CLOUDY    48  27  44 W23       29.61F
DICKINSON      PTCLDY    54  21  27 SE17      29.55F
CROSBY         SUNNY     37  19  48 SE21G29   29.68S WCI  26
TIOGA          PTSUNNY   39  18  43 SE24G30   29.69F WCI  28
WATFORD CITY   SUNNY     48  21  34 E20       29.58F
BISMARCK       PTSUNNY   45  19  35 SE22      29.74F
GRAND FORKS    CLOUDY    30  12  47 SE12      29.97F WCI  20
FARGO          PTSUNNY   34  12  40 SE15      29.99F WCI  24
BUFFALO SD     CLOUDY    63  18  17 W17G24    29.48F
RAPID CITY     PTSUNNY   63  19  18 CALM      29.57F
$$

REGIONAL REPORTS...WYOMING/IDAHO/WASHINGTON
CITY           SKY/WX    TMP DP  RH WIND       PRES   REMARKS
GILLETTE       CLOUDY    59  19  21 W6G21     29.59F
SHERIDAN       CLOUDY    54  32  43 N5        29.61F
CODY           CLOUDY    52  27  38 W5G16     29.64F
YELLOWSTONE LA CLOUDY    34  23  64 VRB3      29.74F
SALMON         PTSUNNY   48  27  44 N12       29.85R
MULLAN PASS    CLOUDY    30  27  89 VRB6      29.86S WCI  24
SAND POINT     PTSUNNY   50  36  59 CALM      29.85S
SPOKANE        PTSUNNY   57  21  25 W21G29    29.91S
$$

REGIONAL REPORTS...ALBERTA
CITY           SKY/WX    TMP DP  RH WIND       PRES   REMARKS
CALGARY        CLOUDY    45  21  38 N10G29    29.78R
LETHBRIDGE     CLOUDY    54  21  27 NW24G35   29.70R
MEDICINE HAT   CLOUDY    55  21  27 N23       29.67R
EDMONTON       LGT RAIN  37  32  82 N18       29.84R WCI  27
WATERTON GATE  N/A       36  32  85 NE3        N/A
CARDSTON       N/A       41  34  76 W13G20     N/A
MILK RIVER     N/A       50  18  28 NW20G29    N/A
$$

REGIONAL REPORTS...SASKATCHEWAN
CITY           SKY/WX    TMP DP  RH WIND       PRES   REMARKS
SWIFT CURRENT  SUNNY     48  21  34 NE15      29.58R
MOOSE JAW      CLOUDY    41  18  39 E24G31    29.65F
REGINA         CLOUDY    39  19  45 SE26G36   29.71S WCI  28
VAL MARIE      N/A       54  18  24 N17G24     N/A
ASSINIBOIA     N/A       43  19  38 E15        N/A

$$




USA.gov is the U.S. government's official web portal to all federal, state and local government web resources and services.